TimeEST,TemperatureF,Dew PointF,Humidity,Sea Level PressureIn,VisibilityMPH,Wind Direction,Wind SpeedMPH,Gust SpeedMPH,PrecipitationIn,Events,Conditions,WindDirDegrees,DateUTC
12:15 AM,-5.1,-12.8,69,30.25,10.0,SW,4.6,-,N/A,,Clear,230,2014-02-18 05:15:00
12:35 AM,-4.4,-11.7,71,30.25,10.0,SW,4.6,-,N/A,,Clear,230,2014-02-18 05:35:00
12:55 AM,-6.7,-13.4,73,30.25,10.0,Calm,Calm,-,N/A,,Clear,0,2014-02-18 05:55:00
1:15 AM,-8.1,-14.8,73,30.25,10.0,SW,3.5,-,N/A,,Clear,230,2014-02-18 06:15:00
1:35 AM,-7.1,-13.0,75,30.24,10.0,Calm,Calm,-,N/A,,Clear,0,2014-02-18 06:35:00
1:55 AM,-6.2,-12.3,75,30.23,10.0,Calm,Calm,-,N/A,,Clear,0,2014-02-18 06:55:00
2:15 AM,-5.3,-11.6,74,30.23,10.0,Calm,Calm,-,N/A,,Clear,0,2014-02-18 07:15:00
2:35 AM,-8.5,-14.1,77,30.22,10.0,Calm,Calm,-,N/A,,Clear,0,2014-02-18 07:35:00
2:55 AM,-8.7,-13.9,78,30.22,10.0,Calm,Calm,-,N/A,,Clear,0,2014-02-18 07:55:00
3:15 AM,-11.0,-16.8,76,30.20,10.0,Calm,Calm,-,N/A,,Clear,0,2014-02-18 08:15:00
3:35 AM,-9.9,-15.5,76,30.20,10.0,Calm,Calm,-,N/A,,Clear,0,2014-02-18 08:35:00
3:55 AM,-9.4,-14.8,77,30.21,10.0,Calm,Calm,-,N/A,,Clear,0,2014-02-18 08:55:00
4:15 AM,-9.2,-15.0,76,30.22,10.0,Calm,Calm,-,N/A,,Clear,0,2014-02-18 09:15:00
4:35 AM,-8.0,-13.9,75,30.22,10.0,Calm,Calm,-,N/A,,Clear,0,2014-02-18 09:35:00
4:55 AM,-8.5,-14.8,74,30.20,10.0,Calm,Calm,-,N/A,,Clear,0,2014-02-18 09:55:00
5:15 AM,-6.9,-13.2,74,30.19,10.0,SW,3.5,-,N/A,,Clear,230,2014-02-18 10:15:00
5:35 AM,-8.3,-15.3,71,30.19,10.0,SW,3.5,-,N/A,,Clear,230,2014-02-18 10:35:00
5:55 AM,-8.5,-14.8,74,30.20,10.0,SW,4.6,-,N/A,,Clear,230,2014-02-18 10:55:00
6:15 AM,-7.6,-13.9,74,30.18,10.0,SW,5.8,-,N/A,,Clear,230,2014-02-18 11:15:00
6:35 AM,-8.0,-14.1,75,30.19,10.0,SW,3.5,-,N/A,,Clear,230,2014-02-18 11:35:00
6:55 AM,-6.0,-12.6,73,30.19,10.0,Calm,Calm,-,N/A,,Clear,0,2014-02-18 11:55:00
7:15 AM,-5.3,-11.9,73,30.19,10.0,Calm,Calm,-,N/A,,Scattered Clouds,0,2014-02-18 12:15:00
7:35 AM,-5.3,-11.9,73,30.20,10.0,SW,3.5,-,N/A,,Scattered Clouds,230,2014-02-18 12:35:00
7:55 AM,-3.8,-10.8,72,30.18,10.0,Calm,Calm,-,N/A,,Overcast,0,2014-02-18 12:55:00
8:15 AM,-1.7,-10.1,67,30.18,10.0,Calm,Calm,-,N/A,,Overcast,0,2014-02-18 13:15:00
8:35 AM,-2.0,-9.8,70,30.15,4.0,Calm,Calm,-,N/A,Snow,Light Snow,0,2014-02-18 13:35:00
8:55 AM,-1.1,-9.6,67,30.14,7.0,SW,3.5,-,N/A,,Overcast,230,2014-02-18 13:55:00
9:15 AM,3.0,-5.1,69,30.12,1.8,SW,5.8,-,N/A,Snow,Light Snow,230,2014-02-18 14:15:00
9:35 AM,3.7,-3.6,71,30.12,7.0,SW,5.8,-,N/A,,Overcast,230,2014-02-18 14:35:00
9:55 AM,6.8,-1.7,68,30.11,10.0,SW,3.5,-,N/A,,Overcast,230,2014-02-18 14:55:00
10:15 AM,7.7,-0.9,68,30.11,2.0,Calm,Calm,-,N/A,Snow,Light Snow,0,2014-02-18 15:15:00
10:35 AM,11.3,2.3,67,30.11,2.0,SW,3.5,-,N/A,Snow,Light Snow,230,2014-02-18 15:35:00
10:55 AM,12.9,4.8,70,30.11,4.0,WSW,4.6,-,N/A,Snow,Light Snow,250,2014-02-18 15:55:00
11:15 AM,15.6,6.6,68,30.10,3.0,South,4.6,-,N/A,Snow,Light Snow,170,2014-02-18 16:15:00
11:35 AM,16.2,7.3,68,30.08,4.0,SSE,4.6,-,N/A,Snow,Light Snow,160,2014-02-18 16:35:00
11:55 AM,17.1,9.3,72,30.06,1.5,SE,4.6,-,N/A,Snow,Light Snow,140,2014-02-18 16:55:00
12:15 PM,17.8,11.1,75,30.05,5.0,SSE,5.8,-,N/A,Snow,Light Snow,160,2014-02-18 17:15:00
12:35 PM,19.4,12.0,73,30.03,5.0,SSE,5.8,-,N/A,Snow,Light Snow,150,2014-02-18 17:35:00
12:55 PM,20.3,12.7,73,30.02,10.0,South,8.1,-,N/A,,Overcast,170,2014-02-18 17:55:00
1:15 PM,21.6,13.1,70,30.01,5.0,SSE,6.9,-,N/A,,Haze,160,2014-02-18 18:15:00
1:35 PM,22.1,13.6,70,30.00,7.0,SSE,8.1,-,N/A,,Overcast,160,2014-02-18 18:35:00
1:55 PM,22.1,14.5,73,29.99,2.5,South,4.6,-,N/A,Snow,Light Snow,190,2014-02-18 18:55:00
2:15 PM,22.1,15.8,77,29.99,1.5,South,3.5,-,N/A,Snow,Light Snow,180,2014-02-18 19:15:00
2:35 PM,21.9,17.1,82,29.99,1.0,SSW,4.6,-,N/A,Snow,Light Snow,200,2014-02-18 19:35:00
2:55 PM,22.1,17.6,83,29.98,1.5,South,4.6,-,N/A,Snow,Light Snow,190,2014-02-18 19:55:00
3:15 PM,22.1,18.0,84,29.98,0.8,SSW,3.5,-,N/A,Snow,Light Snow,200,2014-02-18 20:15:00
3:35 PM,22.1,18.3,85,29.97,1.0,SW,4.6,-,N/A,Snow,Light Snow,220,2014-02-18 20:35:00
3:55 PM,22.1,18.9,87,29.97,0.8,SW,3.5,-,N/A,Snow,Light Snow,230,2014-02-18 20:55:00
4:15 PM,22.1,19.0,88,29.97,0.8,Calm,Calm,-,N/A,Snow,Light Snow,0,2014-02-18 21:15:00
4:35 PM,22.1,19.2,89,29.96,0.5,Calm,Calm,-,N/A,Snow,Snow,0,2014-02-18 21:35:00
4:55 PM,22.1,19.2,89,29.96,0.5,Calm,Calm,-,N/A,Snow,Snow,0,2014-02-18 21:55:00
5:15 PM,22.1,19.2,89,29.96,0.8,WNW,3.5,-,N/A,Snow,Snow,300,2014-02-18 22:15:00
5:35 PM,22.1,19.2,89,29.97,1.2,West,3.5,-,N/A,Snow,Snow,270,2014-02-18 22:35:00
5:55 PM,22.3,19.4,89,29.97,0.8,Calm,Calm,-,N/A,Snow,Snow,0,2014-02-18 22:55:00
6:15 PM,22.1,19.4,89,29.96,1.2,Calm,Calm,-,N/A,Snow,Light Snow,0,2014-02-18 23:15:00
6:35 PM,22.1,19.2,89,29.97,0.8,Calm,Calm,-,N/A,Snow,Snow,0,2014-02-18 23:35:00
6:55 PM,21.9,19.4,90,29.97,1.2,East,3.5,-,N/A,Snow,Light Snow,90,2014-02-18 23:55:00
7:15 PM,21.7,18.9,89,29.97,2.0,Calm,Calm,-,N/A,Snow,Light Snow,0,2014-02-19 00:15:00
7:35 PM,21.4,18.5,89,29.97,2.0,Calm,Calm,-,N/A,Snow,Light Snow,0,2014-02-19 00:35:00
7:55 PM,22.1,19.4,89,29.97,1.2,Calm,Calm,-,N/A,Snow,Snow,0,2014-02-19 00:55:00
8:15 PM,22.1,18.7,87,29.97,1.5,Calm,Calm,-,N/A,Snow,Light Snow,0,2014-02-19 01:15:00
8:35 PM,21.4,18.3,88,29.97,3.0,Calm,Calm,-,N/A,Snow,Light Snow,0,2014-02-19 01:35:00
8:55 PM,20.3,17.4,89,29.97,7.0,Calm,Calm,-,N/A,Snow,Light Snow,0,2014-02-19 01:55:00
9:15 PM,21.0,18.1,89,29.97,7.0,Calm,Calm,-,N/A,Snow,Light Snow,0,2014-02-19 02:15:00
9:35 PM,21.2,18.3,89,29.97,4.0,Calm,Calm,-,N/A,Snow,Light Snow,0,2014-02-19 02:35:00
9:55 PM,20.7,17.6,88,29.98,10.0,Calm,Calm,-,N/A,Snow,Light Snow,0,2014-02-19 02:55:00
10:15 PM,19.9,17.1,89,29.97,10.0,Calm,Calm,-,N/A,,Mostly Cloudy,0,2014-02-19 03:15:00
10:35 PM,20.1,17.2,89,29.98,7.0,Calm,Calm,-,N/A,Snow,Light Snow,0,2014-02-19 03:35:00
10:55 PM,19.6,16.7,89,29.97,4.0,Calm,Calm,-,N/A,Snow,Light Snow,0,2014-02-19 03:55:00
11:15 PM,18.9,15.8,88,29.97,5.0,Calm,Calm,-,N/A,Snow,Light Snow,0,2014-02-19 04:15:00
11:35 PM,18.3,15.1,87,29.98,1.2,Calm,Calm,-,N/A,Snow,Light Snow,0,2014-02-19 04:35:00
11:55 PM,16.7,13.5,87,29.98,7.0,Calm,Calm,-,N/A,,Mostly Cloudy,0,2014-02-19 04:55:00